Time,TemperatureF,DewpointF,PressureIn,WindDirection,WindDirectionDegrees,WindSpeedMPH,WindSpeedGustMPH,Humidity,HourlyPrecipIn,Conditions,Clouds,dailyrainin,SoftwareType,DateUTC
2013-10-14 00:13:00,62.7,61.0,30.19,ESE,111,0.0,2.0,94,0.03,,,0.10,weatherlink.com 1.10,2013-10-14 04:13:00,
2013-10-14 00:28:00,62.8,61.0,30.19,South,187,0.0,1.0,94,0.03,,,0.10,weatherlink.com 1.10,2013-10-14 04:28:00,
2013-10-14 00:43:00,63.0,61.0,30.19,SE,137,0.0,2.0,94,0.02,,,0.10,weatherlink.com 1.10,2013-10-14 04:43:00,
2013-10-14 00:58:00,63.1,62.0,30.18,East,86,0.0,2.0,95,0.01,,,0.00,weatherlink.com 1.10,2013-10-14 04:58:00,
2013-10-14 01:13:00,63.1,62.0,30.18,NW,309,0.0,2.0,95,0.01,,,0.00,weatherlink.com 1.10,2013-10-14 05:13:00,
2013-10-14 01:28:00,63.1,62.0,30.19,WNW,288,0.0,3.0,95,0.01,,,0.00,weatherlink.com 1.10,2013-10-14 05:28:00,
2013-10-14 01:43:00,63.1,62.0,30.18,ESE,121,0.0,4.0,95,0.01,,,0.00,weatherlink.com 1.10,2013-10-14 05:43:00,
2013-10-14 01:58:00,63.1,62.0,30.18,SE,146,0.0,2.0,95,0.01,,,0.01,weatherlink.com 1.10,2013-10-14 05:58:00,
2013-10-14 02:13:00,63.1,62.0,30.19,NE,39,0.0,3.0,95,0.01,,,0.01,weatherlink.com 1.10,2013-10-14 06:13:00,
2013-10-14 02:28:00,63.0,62.0,30.19,West,263,0.0,1.0,95,0.01,,,0.01,weatherlink.com 1.10,2013-10-14 06:28:00,
2013-10-14 02:43:00,62.8,61.0,30.18,SW,236,0.0,5.0,94,0.01,,,0.01,weatherlink.com 1.10,2013-10-14 06:43:00,
2013-10-14 02:58:00,62.8,61.0,30.18,SSW,196,0.0,3.0,95,0.00,,,0.01,weatherlink.com 1.10,2013-10-14 06:58:00,
2013-10-14 03:13:00,62.7,61.0,30.18,ESE,114,0.0,6.0,95,0.00,,,0.01,weatherlink.com 1.10,2013-10-14 07:13:00,
2013-10-14 03:28:00,62.6,61.0,30.18,East,89,3.0,3.0,95,0.00,,,0.01,weatherlink.com 1.10,2013-10-14 07:28:00,
2013-10-14 03:43:00,62.5,61.0,30.18,West,264,0.0,2.0,94,0.01,,,0.02,weatherlink.com 1.10,2013-10-14 07:43:00,
2013-10-14 03:58:00,62.4,61.0,30.18,ENE,64,0.0,5.0,94,0.01,,,0.02,weatherlink.com 1.10,2013-10-14 07:58:00,
2013-10-14 04:13:00,62.3,61.0,30.18,SE,138,1.0,1.0,94,0.02,,,0.03,weatherlink.com 1.10,2013-10-14 08:13:00,
2013-10-14 04:28:00,62.2,61.0,30.18,SSW,203,0.0,2.0,94,0.02,,,0.03,weatherlink.com 1.10,2013-10-14 08:28:00,
2013-10-14 04:43:00,62.2,61.0,30.19,NE,50,0.0,4.0,95,0.01,,,0.03,weatherlink.com 1.10,2013-10-14 08:43:00,
2013-10-14 04:58:00,62.1,60.0,30.19,NNE,32,0.0,1.0,94,0.01,,,0.03,weatherlink.com 1.10,2013-10-14 08:58:00,
2013-10-14 05:13:00,61.9,60.0,30.20,East,87,2.0,5.0,94,0.01,,,0.04,weatherlink.com 1.10,2013-10-14 09:13:00,
2013-10-14 05:28:00,61.9,60.0,30.20,SW,233,1.0,3.0,94,0.01,,,0.04,weatherlink.com 1.10,2013-10-14 09:28:00,
2013-10-14 05:43:00,61.8,60.0,30.20,SW,215,0.0,5.0,94,0.01,,,0.04,weatherlink.com 1.10,2013-10-14 09:43:00,
2013-10-14 05:58:00,61.7,60.0,30.20,NNW,335,0.0,6.0,94,0.01,,,0.04,weatherlink.com 1.10,2013-10-14 09:58:00,
2013-10-14 06:13:00,61.6,60.0,30.20,SSE,149,1.0,7.0,94,0.00,,,0.04,weatherlink.com 1.10,2013-10-14 10:13:00,
2013-10-14 06:28:00,61.5,60.0,30.20,NE,44,0.0,4.0,94,0.00,,,0.04,weatherlink.com 1.10,2013-10-14 10:28:00,
2013-10-14 06:43:00,61.4,60.0,30.20,ESE,114,0.0,6.0,94,0.00,,,0.04,weatherlink.com 1.10,2013-10-14 10:43:00,
2013-10-14 06:58:00,61.3,60.0,30.20,SW,217,0.0,5.0,94,0.01,,,0.05,weatherlink.com 1.10,2013-10-14 10:58:00,
2013-10-14 07:13:00,61.3,60.0,30.20,WNW,303,0.0,3.0,94,0.02,,,0.06,weatherlink.com 1.10,2013-10-14 11:13:00,
2013-10-14 07:28:00,61.2,60.0,30.20,NE,56,1.0,5.0,94,0.02,,,0.06,weatherlink.com 1.10,2013-10-14 11:28:00,
2013-10-14 07:43:00,61.1,59.0,30.20,West,270,0.0,4.0,94,0.02,,,0.06,weatherlink.com 1.10,2013-10-14 11:43:00,
2013-10-14 07:58:00,61.1,59.0,30.21,NNE,26,1.0,2.0,94,0.01,,,0.06,weatherlink.com 1.10,2013-10-14 11:58:00,
2013-10-14 08:13:00,61.2,60.0,30.21,WNW,284,0.0,3.0,95,0.01,,,0.07,weatherlink.com 1.10,2013-10-14 12:13:00,
2013-10-14 08:28:00,61.1,60.0,30.22,SW,232,0.0,5.0,95,0.01,,,0.07,weatherlink.com 1.10,2013-10-14 12:28:00,
2013-10-14 08:43:00,61.1,60.0,30.23,ESE,110,0.0,2.0,95,0.01,,,0.07,weatherlink.com 1.10,2013-10-14 12:43:00,
2013-10-14 08:58:00,61.2,60.0,30.23,NNW,335,0.0,4.0,95,0.01,,,0.07,weatherlink.com 1.10,2013-10-14 12:58:00,
2013-10-14 09:13:00,61.2,60.0,30.24,NW,307,0.0,2.0,94,0.00,,,0.07,weatherlink.com 1.10,2013-10-14 13:13:00,
2013-10-14 09:28:00,61.3,60.0,30.24,NE,54,0.0,3.0,95,0.00,,,0.07,weatherlink.com 1.10,2013-10-14 13:28:00,
2013-10-14 09:43:00,61.4,60.0,30.24,ESE,108,3.0,4.0,95,0.00,,,0.07,weatherlink.com 1.10,2013-10-14 13:43:00,
2013-10-14 09:58:00,61.4,60.0,30.24,SW,225,1.0,4.0,94,0.00,,,0.07,weatherlink.com 1.10,2013-10-14 13:58:00,
2013-10-14 10:13:00,61.7,60.0,30.24,ENE,70,0.0,2.0,94,0.00,,,0.07,weatherlink.com 1.10,2013-10-14 14:13:00,
2013-10-14 10:28:00,61.7,60.0,30.24,SE,131,0.0,5.0,94,0.00,,,0.07,weatherlink.com 1.10,2013-10-14 14:28:00,
2013-10-14 10:43:00,61.9,60.0,30.23,NE,40,2.0,3.0,94,0.00,,,0.07,weatherlink.com 1.10,2013-10-14 14:43:00,
2013-10-14 10:58:00,62.0,60.0,30.23,SE,136,0.0,3.0,94,0.00,,,0.07,weatherlink.com 1.10,2013-10-14 14:58:00,
2013-10-14 11:13:00,62.3,61.0,30.23,SE,127,0.0,5.0,94,0.00,,,0.07,weatherlink.com 1.10,2013-10-14 15:13:00,
2013-10-14 11:28:00,62.6,61.0,30.22,ENE,63,0.0,2.0,94,0.00,,,0.07,weatherlink.com 1.10,2013-10-14 15:28:00,
2013-10-14 11:43:00,63.2,62.0,30.22,SSE,166,1.0,3.0,94,0.00,,,0.07,weatherlink.com 1.10,2013-10-14 15:43:00,
2013-10-14 11:58:00,63.5,62.0,30.22,WSW,248,1.0,2.0,93,0.00,,,0.07,weatherlink.com 1.10,2013-10-14 15:58:00,
2013-10-14 12:14:00,63.9,62.0,30.22,ESE,120,0.0,5.0,93,0.00,,,0.07,weatherlink.com 1.10,2013-10-14 16:14:00,
2013-10-14 12:29:00,64.1,62.0,30.21,WNW,299,0.0,6.0,92,0.00,,,0.07,weatherlink.com 1.10,2013-10-14 16:29:00,
2013-10-14 12:44:00,64.8,62.0,30.21,ESE,103,4.0,6.0,90,0.00,,,0.07,weatherlink.com 1.10,2013-10-14 16:44:00,
2013-10-14 12:59:00,65.1,62.0,30.21,NW,307,0.0,7.0,90,0.00,,,0.07,weatherlink.com 1.10,2013-10-14 16:59:00,
2013-10-14 13:14:00,65.3,62.0,30.21,East,87,3.0,7.0,89,0.00,,,0.07,weatherlink.com 1.10,2013-10-14 17:14:00,
2013-10-14 13:29:00,65.2,62.0,30.20,SE,138,1.0,4.0,89,0.00,,,0.07,weatherlink.com 1.10,2013-10-14 17:29:00,
2013-10-14 13:44:00,65.2,62.0,30.20,ENE,75,1.0,4.0,89,0.00,,,0.07,weatherlink.com 1.10,2013-10-14 17:44:00,
2013-10-14 13:59:00,65.8,62.0,30.19,NE,34,0.0,4.0,88,0.00,,,0.07,weatherlink.com 1.10,2013-10-14 17:59:00,
2013-10-14 14:14:00,65.5,62.0,30.19,West,277,0.0,8.0,88,0.00,,,0.07,weatherlink.com 1.10,2013-10-14 18:14:00,
2013-10-14 14:29:00,65.4,62.0,30.19,NNE,30,5.0,6.0,88,0.00,,,0.07,weatherlink.com 1.10,2013-10-14 18:29:00,
2013-10-14 14:44:00,64.7,61.0,30.18,NE,41,4.0,6.0,88,0.00,,,0.07,weatherlink.com 1.10,2013-10-14 18:44:00,
2013-10-14 14:59:00,64.5,61.0,30.18,SSW,208,0.0,4.0,89,0.00,,,0.07,weatherlink.com 1.10,2013-10-14 18:59:00,
2013-10-14 15:14:00,64.4,62.0,30.19,ESE,113,1.0,3.0,90,0.00,,,0.07,weatherlink.com 1.10,2013-10-14 19:14:00,
2013-10-14 15:29:00,63.7,61.0,30.19,ESE,122,1.0,7.0,90,0.00,,,0.07,weatherlink.com 1.10,2013-10-14 19:29:00,
2013-10-14 15:44:00,63.6,61.0,30.18,West,281,2.0,3.0,90,0.00,,,0.07,weatherlink.com 1.10,2013-10-14 19:44:00,
2013-10-14 15:59:00,63.3,61.0,30.18,NW,321,0.0,2.0,91,0.00,,,0.07,weatherlink.com 1.10,2013-10-14 19:59:00,
2013-10-14 16:14:00,63.4,61.0,30.18,SE,125,0.0,1.0,91,0.00,,,0.07,weatherlink.com 1.10,2013-10-14 20:14:00,
2013-10-14 16:29:00,63.6,61.0,30.18,NNE,26,0.0,4.0,91,0.00,,,0.07,weatherlink.com 1.10,2013-10-14 20:29:00,
2013-10-14 16:44:00,63.3,60.0,30.19,SSE,154,0.0,8.0,89,0.00,,,0.07,weatherlink.com 1.10,2013-10-14 20:44:00,
2013-10-14 16:59:00,63.2,60.0,30.19,North,352,1.0,2.0,88,0.00,,,0.07,weatherlink.com 1.10,2013-10-14 20:59:00,
2013-10-14 17:14:00,63.3,60.0,30.18,ENE,64,0.0,3.0,89,0.00,,,0.07,weatherlink.com 1.10,2013-10-14 21:14:00,
2013-10-14 17:29:00,63.5,60.0,30.19,East,85,1.0,4.0,88,0.00,,,0.07,weatherlink.com 1.10,2013-10-14 21:29:00,
2013-10-14 17:44:00,63.5,60.0,30.19,SE,143,0.0,2.0,88,0.00,,,0.07,weatherlink.com 1.10,2013-10-14 21:44:00,
2013-10-14 17:59:00,63.3,60.0,30.19,West,262,0.0,2.0,88,0.00,,,0.07,weatherlink.com 1.10,2013-10-14 21:59:00,
2013-10-14 18:14:00,63.0,59.0,30.19,SE,134,0.0,4.0,88,0.00,,,0.07,weatherlink.com 1.10,2013-10-14 22:14:00,
2013-10-14 18:29:00,62.6,59.0,30.19,ESE,121,0.0,2.0,89,0.00,,,0.07,weatherlink.com 1.10,2013-10-14 22:29:00,
2013-10-14 18:44:00,62.2,59.0,30.19,NNW,338,0.0,0.0,90,0.00,,,0.07,weatherlink.com 1.10,2013-10-14 22:44:00,
2013-10-14 18:59:00,61.8,59.0,30.19,SW,219,0.0,2.0,90,0.00,,,0.07,weatherlink.com 1.10,2013-10-14 22:59:00,
2013-10-14 19:14:00,61.6,59.0,30.19,WSW,242,0.0,1.0,91,0.00,,,0.07,weatherlink.com 1.10,2013-10-14 23:14:00,
2013-10-14 19:29:00,61.4,59.0,30.19,SW,232,0.0,2.0,90,0.00,,,0.07,weatherlink.com 1.10,2013-10-14 23:29:00,
2013-10-14 19:44:00,61.4,59.0,30.19,West,271,0.0,2.0,90,0.00,,,0.07,weatherlink.com 1.10,2013-10-14 23:44:00,
2013-10-14 19:59:00,61.3,58.0,30.20,ENE,57,0.0,3.0,90,0.00,,,0.07,weatherlink.com 1.10,2013-10-14 23:59:00,
2013-10-14 20:14:00,61.3,58.0,30.20,East,89,0.0,3.0,90,0.00,,,0.07,weatherlink.com 1.10,2013-10-15 00:14:00,
2013-10-14 20:29:00,60.8,58.0,30.20,East,89,0.0,0.0,91,0.00,,,0.07,weatherlink.com 1.10,2013-10-15 00:29:00,
2013-10-14 20:44:00,59.9,57.0,30.20,East,89,0.0,0.0,91,0.00,,,0.07,weatherlink.com 1.10,2013-10-15 00:44:00,
2013-10-14 20:59:00,59.3,57.0,30.20,East,96,0.0,0.0,92,0.00,,,0.07,weatherlink.com 1.10,2013-10-15 00:59:00,
2013-10-14 21:14:00,58.9,57.0,30.20,East,97,0.0,0.0,92,0.00,,,0.07,weatherlink.com 1.10,2013-10-15 01:14:00,
2013-10-14 21:29:00,58.5,57.0,30.20,SW,222,0.0,0.0,93,0.00,,,0.07,weatherlink.com 1.10,2013-10-15 01:29:00,
2013-10-14 21:44:00,58.2,56.0,30.20,SW,223,0.0,0.0,93,0.00,,,0.07,weatherlink.com 1.10,2013-10-15 01:44:00,
2013-10-14 21:59:00,58.0,56.0,30.21,SW,224,0.0,0.0,93,0.00,,,0.07,weatherlink.com 1.10,2013-10-15 01:59:00,
2013-10-14 22:14:00,57.6,56.0,30.20,SW,222,0.0,0.0,93,0.00,,,0.07,weatherlink.com 1.10,2013-10-15 02:14:00,
2013-10-14 22:29:00,57.5,56.0,30.20,SW,224,0.0,0.0,94,0.00,,,0.07,weatherlink.com 1.10,2013-10-15 02:29:00,
2013-10-14 22:44:00,57.3,56.0,30.20,North,1,0.0,0.0,94,0.00,,,0.07,weatherlink.com 1.10,2013-10-15 02:44:00,
2013-10-14 22:59:00,57.3,56.0,30.20,North,351,0.0,0.0,94,0.00,,,0.07,weatherlink.com 1.10,2013-10-15 02:59:00,
2013-10-14 23:14:00,57.1,55.0,30.20,ESE,108,0.0,1.0,94,0.00,,,0.07,weatherlink.com 1.10,2013-10-15 03:14:00,
2013-10-14 23:29:00,57.0,55.0,30.20,ESE,117,0.0,1.0,94,0.00,,,0.07,weatherlink.com 1.10,2013-10-15 03:29:00,
2013-10-14 23:44:00,56.9,55.0,30.20,SE,129,0.0,1.0,94,0.00,,,0.07,weatherlink.com 1.10,2013-10-15 03:44:00,
2013-10-14 23:59:00,56.6,55.0,30.20,WSW,252,0.0,1.0,94,0.00,,,0.07,weatherlink.com 1.10,2013-10-15 03:59:00,